Location: Oakhurst
(33.6448°N, 111.9543°W)
Time: 22:14:47
(UTC+00:00)

DUCHIFAT 1 - Pass Details

Date: 29 July 2021
Orbit: 585 x 601 km, 98.0° (Epoch: 15 September)

Event Time Altitude Azimuth Distance (km) Brightness Sun altitude
Rises 10:10:03 0° 355° (N) 2,839 ? -25.9°
Reaches altitude 10° 10:12:37 10° 339° (NNW) 1,937 ? -25.5°
Enters shadow 10:14:21 18° 317° (NW) 1,496 ? -25.3°
